This is the latest recevied weather packets stored in our database for station/object AD6NH. If no packets are shown the sender has not sent any weather packets the latest 1 day(s).
| Time | Temp. | Humidity | Pressure | Rain* | Wind** | Luminosity | Snow |
|---|---|---|---|---|---|---|---|
| 1777967222 | 13.89° C | 84% | 1015.5 hPa | 0 mm | 0.89 m/s, 251° | - | - |
| 1777966622 | 13.89° C | 83% | 1015.4 hPa | 0 mm | 0.89 m/s, 255° | - | - |
| 1777966022 | 14.44° C | 80% | 1015.4 hPa | 0 mm | 0.45 m/s, 260° | - | - |
| 1777965422 | 14.44° C | 80% | 1015.3 hPa | 0 mm | 0.45 m/s, 259° | - | - |
| 1777964822 | 14.44° C | 79% | 1015.4 hPa | 0 mm | 0.45 m/s, 258° | - | - |
| 1777964222 | 14.44° C | 79% | 1015.4 hPa | 0 mm | 0.45 m/s, 258° | - | - |
| 1777963622 | 14.44° C | 80% | 1015.4 hPa | 0 mm | 0 m/s | - | - |
| 1777963022 | 14.44° C | 80% | 1015.4 hPa | 0 mm | 0 m/s | - | - |
| 1777962422 | 14.44° C | 79% | 1015.5 hPa | 0 mm | 0.45 m/s, 247° | - | - |
| 1777961822 | 14.44° C | 79% | 1015.5 hPa | 0 mm | 0.89 m/s, 247° | - | - |
| 1777961222 | 14.44° C | 79% | 1015.7 hPa | 0 mm | 0.89 m/s, 244° | - | - |
| 1777960622 | 14.44° C | 79% | 1015.7 hPa | 0 mm | 0.89 m/s, 247° | - | - |
| 1777960022 | 14.44° C | 80% | 1015.8 hPa | 0 mm | 0.89 m/s, 227° | - | - |
| 1777959422 | 14.44° C | 80% | 1015.9 hPa | 0 mm | 0 m/s | - | - |
| 1777958822 | 14.44° C | 78% | 1015.9 hPa | 0 mm | 0.89 m/s, 191° | - | - |
| 1777958222 | 14.44° C | 78% | 1016 hPa | 0 mm | 0.45 m/s, 192° | - | - |
| 1777957622 | 14.44° C | 79% | 1016 hPa | 0 mm | 1.34 m/s, 235° | - | - |
| 1777957022 | 15° C | 77% | 1016.1 hPa | 0 mm | 0.45 m/s, 205° | - | - |
| 1777956422 | 15° C | 77% | 1016 hPa | 0 mm | 0.89 m/s, 221° | - | - |
| 1777955822 | 15° C | 78% | 1016 hPa | 0 mm | 0.45 m/s, 251° | - | - |
| 1777955222 | 15° C | 78% | 1016.2 hPa | 0 mm | 0.89 m/s, 249° | - | - |
| 1777954622 | 15° C | 78% | 1016 hPa | 0 mm | 0.45 m/s, 249° | - | - |
* Rain latest hour (hover to see other rain measurements)
** Current wind speed in m/s (hover to see current wind gust speed)